This is the latest recevied weather packets stored in our database for station/object WD7CGF. If no packets are shown the sender has not sent any weather packets the latest 10 day(s).
| Time | Temp. | Humidity | Pressure | Rain* | Wind** | Luminosity | Snow |
|---|---|---|---|---|---|---|---|
| 1787686721 | 30° C | 36% | 1015 hPa | 0 mm | - | - | - |
| 1787686118 | 29.44° C | 40% | 1015.5 hPa | 0 mm | - | - | - |
| 1787685512 | 28.89° C | 37% | 1015.5 hPa | 0 mm | - | - | - |
| 1787684925 | 28.33° C | 38% | 1015.6 hPa | 0 mm | - | - | - |
| 1787684319 | 27.78° C | 43% | 1015.6 hPa | 0 mm | - | - | - |
| 1787683715 | 26.67° C | 44% | 1015.6 hPa | 0 mm | - | - | - |
| 1787683127 | 26.67° C | 43% | 1015.7 hPa | 0 mm | - | - | - |
| 1787682525 | 26.11° C | 47% | 1015.9 hPa | 0 mm | - | - | - |
| 1787681917 | 25° C | 47% | 1015.9 hPa | 0 mm | - | - | - |
| 1787681329 | 24.44° C | 51% | 1016.1 hPa | 0 mm | - | - | - |
| 1787680722 | 23.89° C | 48% | 1016.3 hPa | 0 mm | - | - | - |
| 1787680115 | 23.33° C | 48% | 1016.3 hPa | 0 mm | - | - | - |
| 1787679529 | 22.78° C | 51% | 1016.5 hPa | 0 mm | - | - | - |
| 1787678922 | 22.22° C | 54% | 1016.9 hPa | 0 mm | - | - | - |
| 1787678314 | 21.11° C | 57% | 1016.9 hPa | 0 mm | - | - | - |
| 1787677730 | 20.56° C | 55% | 1016.9 hPa | 0 mm | - | - | - |
| 1787677126 | 20.56° C | 59% | 1017.1 hPa | 0 mm | - | - | - |
| 1787676518 | 20° C | 60% | 1017.1 hPa | 0 mm | - | - | - |
| 1787675912 | 19.44° C | 62% | 1016.5 hPa | 0 mm | - | - | - |
| 1787675326 | 18.89° C | 63% | 1016.7 hPa | 0 mm | - | - | - |
| 1787674717 | 18.33° C | 64% | 1016.7 hPa | 0 mm | - | - | - |
| 1787674111 | 17.78° C | 66% | 1017.6 hPa | 0 mm | - | - | - |
| 1787673525 | 16.67° C | 67% | 1016.8 hPa | 0 mm | - | - | - |
| 1787672923 | 16.11° C | 70% | 1016.8 hPa | 0 mm | - | - | - |
| 1787672318 | 15.56° C | 72% | 1017 hPa | 0 mm | - | - | - |
* Rain latest hour (hover to see other rain measurements)
** Current wind speed in m/s (hover to see current wind gust speed)